Change the Weather History Date:

Thursday, October 3, 2013

  Actual Average Record
Temperature  
Mean Temperature 76 °F -  
Max Temperature 85 °F 72 °F 89 °F (2004)
Min Temperature 68 °F 54 °F 51 °F (1996)
Cooling Degree Days 12    
Growing Degree Days 26 (Base 50)    
Moisture  
Dew Point 70 °F    
Average Humidity 80    
Maximum Humidity 94    
Minimum Humidity 54    
Precipitation  
Precipitation 0.00 in 0.08 in - ()
Sea Level Pressure  
Sea Level Pressure 29.90 in    
Wind  
Wind Speed 7 mph ()    
Max Wind Speed 15 mph    
Max Gust Speed -    
Visibility 6.5 miles    
Events      
Averages and records for this station are not official NWS values.
T = Trace of Precipitation, MM = Missing Value Source: Averaged Metar Reports

Daily Weather History Graph

Daily Weather History Graph

Search for Another Location

Airport or City:

Trip Planner

Search our weather history database for the weather conditions in past years. The results will help you decide how hot, cold, wet, or windy it might be!

Date:

Astronomy

Oct. 03, 2013 Rise Set
Actual Time 7:47 AM CEST 7:28 PM CEST
Civil Twilight 7:20 AM CEST 7:55 PM CEST
Nautical Twilight 6:49 AM CEST 8:26 PM CEST
Astronomical Twilight 6:17 AM CEST 8:57 PM CEST
Moon 6:05 AM CEST (10/3) 6:28 PM CEST (10/3)
Length of Visible Light 12h 34m
Length of Day
11h 41m
Waning Crescent, 3% of the Moon is Illuminated
Oct 3
Waning Crescent
Oct 5
New
Oct 12
First Quarter
Oct 19
Full
Oct 27
Last Quarter

Hourly Weather History & Observations

Time (CEST) Temp. Heat Index Dew Point Humidity Pressure Visibility Wind Dir Wind Speed Gust Speed Precip Events Conditions
12:00 AM 71.6 °F - 69.8 °F 94% 29.89 in 6.2 mi ESE 3.5 mph - N/A   Partly Cloudy
12:30 AM 71.6 °F - 68.0 °F 88% 29.89 in 6.2 mi ENE 2.3 mph - N/A   Scattered Clouds
1:00 AM 71.6 °F - 68.0 °F 88% 29.89 in 6.2 mi NE 3.5 mph - N/A   Partly Cloudy
1:30 AM 71.6 °F - 69.8 °F 94% 29.89 in 6.2 mi NE 3.5 mph - N/A   Scattered Clouds
2:00 AM 71 °F - 69 °F 91% 29.89 in 11 mi NE 3.5 mph - -   Partly Cloudy
2:00 AM 71.6 °F - 68.0 °F 88% 29.89 in 6.2 mi ENE 6.9 mph - N/A   Scattered Clouds
2:30 AM 71.6 °F - 68.0 °F 88% 29.89 in 6.2 mi ENE 2.3 mph - N/A   Scattered Clouds
3:00 AM 71.6 °F - 68.0 °F 88% 29.89 in 6.2 mi East 4.6 mph - N/A   Scattered Clouds
3:30 AM 69.8 °F - 68.0 °F 94% 29.89 in 6.2 mi ENE 3.5 mph - N/A   Scattered Clouds
4:00 AM 69.8 °F - 68.0 °F 94% 29.89 in 6.2 mi ENE 6.9 mph - N/A   Partly Cloudy
4:30 AM 69.8 °F - 68.0 °F 94% 29.89 in 6.2 mi ENE 3.5 mph - N/A   Partly Cloudy
5:00 AM 69.8 °F - 68.0 °F 94% 29.86 in 6.2 mi ENE 5.8 mph - N/A   Partly Cloudy
5:30 AM 69.8 °F - 68.0 °F 94% 29.86 in 6.2 mi NE 8.1 mph - N/A   Partly Cloudy
6:00 AM 69.8 °F - 68.0 °F 94% 29.86 in 6.2 mi ENE 8.1 mph - N/A   Partly Cloudy
6:30 AM 71.6 °F - 69.8 °F 94% 29.86 in 6.2 mi ENE 8.1 mph - N/A   Partly Cloudy
7:00 AM 71.6 °F - 69.8 °F 94% 29.86 in 6.2 mi East 8.1 mph - N/A   Partly Cloudy
7:30 AM 71.6 °F - 69.8 °F 94% 29.86 in 6.2 mi NE 8.1 mph - N/A   Partly Cloudy
8:00 AM 74 °F - 70 °F 82% 29.88 in 12 mi NE 8.1 mph - -   Scattered Clouds
8:00 AM 73.4 °F - 69.8 °F 88% 29.86 in 6.2 mi NE 9.2 mph - N/A   Partly Cloudy
8:30 AM 73.4 °F - 69.8 °F 88% 29.86 in 6.2 mi NE 10.4 mph - N/A   Partly Cloudy
9:00 AM 75.2 °F - 69.8 °F 83% 29.89 in 6.2 mi ENE 9.2 mph - N/A   Partly Cloudy
9:30 AM 77.0 °F - 71.6 °F 83% 29.89 in 6.2 mi ENE 11.5 mph - N/A   Partly Cloudy
10:00 AM 77.0 °F - 71.6 °F 83% 29.89 in 6.2 mi NE 13.8 mph - N/A   Partly Cloudy
10:30 AM 78.8 °F - 71.6 °F 78% 29.89 in 6.2 mi ENE 12.7 mph - N/A   Partly Cloudy
11:00 AM 80.6 °F 84.6 °F 71.6 °F 74% 29.89 in 6.2 mi ENE 15.0 mph - N/A   Partly Cloudy
11:30 AM 82.4 °F 86.3 °F 69.8 °F 66% 29.92 in 6.2 mi ENE 11.5 mph - N/A   Partly Cloudy
12:00 PM 82.4 °F 86.3 °F 69.8 °F 66% 29.92 in 6.2 mi ENE 10.4 mph - N/A   Partly Cloudy
12:30 PM 82.4 °F 86.3 °F 69.8 °F 66% 29.95 in 6.2 mi ENE 11.5 mph - N/A   Partly Cloudy
1:30 PM 84.2 °F 88.4 °F 69.8 °F 62% 29.92 in 6.2 mi East 12.7 mph - N/A   Scattered Clouds
2:00 PM 83 °F - 69 °F 54% 29.92 in 12 mi East 15.0 mph - -   Mostly Cloudy
2:00 PM 82.4 °F 86.3 °F 69.8 °F 66% 29.92 in 6.2 mi East 11.5 mph - N/A   Mostly Cloudy
2:30 PM 82.4 °F 86.3 °F 69.8 °F 66% 29.92 in 6.2 mi East 11.5 mph - N/A   Mostly Cloudy
3:00 PM 84.2 °F 88.4 °F 69.8 °F 62% 29.89 in 6.2 mi East 10.4 mph - N/A   Scattered Clouds
3:30 PM 84.2 °F 88.4 °F 69.8 °F 62% 29.89 in 6.2 mi East 10.4 mph - N/A   Scattered Clouds
4:00 PM 84.2 °F 88.4 °F 69.8 °F 62% 29.89 in 6.2 mi East 11.5 mph - N/A   Scattered Clouds
4:30 PM 82.4 °F 86.3 °F 69.8 °F 66% 29.86 in 6.2 mi East 12.7 mph - N/A   Partly Cloudy
5:00 PM 84.2 °F 89.6 °F 71.6 °F 66% 29.86 in 6.2 mi East 13.8 mph - N/A   Scattered Clouds
5:30 PM 82.4 °F 86.3 °F 69.8 °F 66% 29.89 in 6.2 mi East 10.4 mph - N/A   Scattered Clouds
6:00 PM 82.4 °F 87.2 °F 71.6 °F 70% 29.89 in 6.2 mi East 11.5 mph - N/A   Scattered Clouds
6:30 PM 80.6 °F 84.6 °F 71.6 °F 74% 29.89 in 6.2 mi East 9.2 mph - N/A   Partly Cloudy
7:00 PM 80.6 °F 84.6 °F 71.6 °F 74% 29.89 in 6.2 mi East 10.4 mph - N/A   Partly Cloudy
7:30 PM 78.8 °F - 71.6 °F 78% 29.89 in 5.6 mi East 11.5 mph - N/A   Partly Cloudy
8:00 PM 78 °F - 71 °F 74% 29.92 in 6 mi ENE 8.1 mph - -   Haze
8:00 PM 78.8 °F - 71.6 °F 78% 29.92 in 5.6 mi East 8.1 mph - N/A   Partly Cloudy
8:30 PM 77.0 °F - 71.6 °F 83% 29.92 in 5.6 mi ENE 8.1 mph - N/A   Partly Cloudy
9:00 PM 77.0 °F - 71.6 °F 83% 29.95 in 5.6 mi NE 8.1 mph - N/A   Scattered Clouds
9:30 PM 77.0 °F - 71.6 °F 83% 29.95 in 5.6 mi NE 9.2 mph - N/A   Scattered Clouds
10:00 PM 77.0 °F - 71.6 °F 83% 29.95 in 6.2 mi NE 10.4 mph - N/A   Scattered Clouds
10:30 PM 77.0 °F - 71.6 °F 83% 29.95 in 6.2 mi NE 10.4 mph - N/A   Mostly Cloudy
11:00 PM 77.0 °F - 71.6 °F 83% 29.95 in 6.2 mi ENE 8.1 mph - N/A   Mostly Cloudy
11:30 PM 77.0 °F - 71.6 °F 83% 29.98 in 6.2 mi ENE 8.1 mph - N/A   Mostly Cloudy